DELTA 1 R/B

Last updated on Mon Sep 21 2026 00:02:08 GMT+0000 (Coordinated Universal Time)

1 20323U 89089B 26263.46853889 .00000208 00000+0 60131-4 0 9998 2 20323 97.0662 79.8017 0067871 225.9918 133.5675 14.50777048923972
UTC large
Height (km)
Speed (km/s)
/
Latitude / Longitude
Inclination (degrees)
Orbital Period (minutes)
Azimuth
Elevation
Range (km)
Doppler Factor

Next 0 passes for location: London (51.5072 / 0.1276)

No passes found over London.
DELTA 1 R/B